Terug naar catalogus

COSMOS 1275 DEB

ActiefPO
NORAD 13619·DEBRIS·🇷🇺 Russia

Gelanceerd Jun 4, 1981 vanaf Plesetsk Cosmodrome

Loading…

Volgende Passages (komende 24 uur)

TLE

VersSource: Space-Track

Epoch: Sep 14, 2026, 19:52 UTC

1 13619U 81053GM  26257.82791565  .00001414  00000-0  78247-3 0  9993
2 13619  83.0295  36.5407 0023059  89.2038  63.4491 14.10581922235788

Volg COSMOS 1275 DEB in realtime met AllMySat

Download on the App Store